Regional Weather Roundup
Issued by NWS

Home | Current Version | Previous Version | Graphics & Text | Print | Product List | Glossary On
Versions: 1 2 3 4 5 6 7 8 9 10 11 12 13 14 15 16 17 18 19 20 21 22 23 24 25 26 27
000
ASUS45 KBOU 230007
RWRCO

WEATHER ROUNDUP FOR COLORADO
NATIONAL WEATHER SERVICE DENVER/BOULDER CO
600 PM MDT SAT JUL 22 2017

NOTE: "FAIR" INDICATES FEW OR NO CLOUDS BELOW 12000 FEET WITH NO
SIGNIFICANT WEATHER AND/OR OBSTRUCTIONS TO VISIBILITY.

COZ001>005-013-030-031-230100-
...NORTHWEST COLORADO...

CITY           SKY/WX    TMP DP  RH WIND       PRES   REMARKS
CRAIG          FAIR      89  25  10 NE7       30.20F
HAYDEN         FAIR      84  28  13 N9        30.23F
MEEKER         PTSUNNY   86  39  19 E13       30.21F
RABBIT EARS PA FAIR      64  34  32 NW7       30.57F
STEAMBOAT SPGS FAIR      83  31  15 W9        30.25F
WALDEN         FAIR      77  28  16 NW14      30.37F
$$

COZ006>008-011-230100-
...WEST CENTRAL VALLEYS...

CITY           SKY/WX    TMP DP  RH WIND       PRES   REMARKS
GRAND JUNCTION FAIR      94  51  23 SW8       30.03F
MONTROSE       FAIR      86  51  29 S15       30.15S
EAGLE          SUNNY     86  37  17 NW7G16    30.22F
RIFLE          FAIR      92  37  14 NW12      30.10F
DELTA          FAIR      89  49  25 S5        30.09F
NUCLA          NOT AVBL
$$

COZ017>023-064>068-230100-
...SOUTHWEST COLORADO...

CITY           SKY/WX    TMP DP  RH WIND       PRES   REMARKS
DURANGO        LGT RAIN  63  55  75 E8        30.30F
CORTEZ         FAIR      81  52  36 CALM      30.15S
PAGOSA SPRINGS LGT RAIN  62  54  75 NW3       30.38S
TELLURIDE      FAIR      64  51  61 CALM      30.45R
WOLF CREEK PAS LGT RAIN  46  39  76 CALM      30.72S
$$

COZ009-010-012-014-032>034-037-058>063-230100-
...CENTRAL COLORADO...

CITY           SKY/WX    TMP DP  RH WIND       PRES   REMARKS
ASPEN          FAIR      76  48  37 SE12      30.30F
BUENA VISTA    LGT RAIN  66  45  46 W5        30.42R
COPPER MTN     FAIR      64  34  32 N7        30.69F
BERTHOUD PASS  FAIR      52  37  58 NW7G16    30.72F
COTTONWOOD PAS CLOUDY    61  41  48 CALM      30.58R
GUNNISON       FAIR      67  50  54 VRB5      30.36R
KREMMLING      FAIR      86  30  13 NW12G17   30.29S
LEADVILLE      FAIR      55  43  63 S12       30.52S
MONARCH PASS     N/A     45  43  93 E24       30.77F
SALIDA         CLOUDY    61  53  75 SE13G23   30.48R
SUNLIGHT       FAIR      63  41  45 CALM      30.61S
WILKERSON PASS CLOUDY    54  43  66 CALM      30.67S
$$

COZ069>075-230100-
...SAN LUIS VALLEY/SANGRE DE CRISTO MOUNTAINS...

CITY           SKY/WX    TMP DP  RH WIND       PRES   REMARKS
ALAMOSA        FAIR      66  54  65 E10       30.35F
DEL NORTE      CLOUDY    64  48  56 W17G25    30.38S
LA VETA PASS   NOT AVBL
SAGUACHE         N/A    N/A N/A N/A MISG        N/A
$$

COZ035-036-038>040-230100-
...NORTHERN COLORADO FRONT RANGE...

CITY           SKY/WX    TMP DP  RH WIND       PRES   REMARKS
DENVER INTL AP PTSUNNY   89  48  24 VRB7      30.14S
DMNS CITY PARK   N/A     87  47  25 SW3       30.13S
AURORA         NOT AVBL
FRONT RANGE AP FAIR      88  52  29 E14       30.16S
ERIE MUNI ARPT FAIR      88  44  21 CALM      30.12F
BOULDER MUN AP FAIR      88  43  20 E5        30.13F
CENTENNIAL     PTSUNNY   84  49  29 W7        30.18F
BROOMFIELD     FAIR      86  45  23 CALM      30.17S
FORT COLLINS   FAIR      88  52  29 S8        30.12S
LONGMONT       FAIR      91  45  20 SE3       30.13S
$$

COZ041-046-047-076>085-087-088-230100-
...PIKES PEAK/PALMER DIVIDE AND SOUTHERN FOOTHILLS...

CITY           SKY/WX    TMP DP  RH WIND       PRES   REMARKS
COLO. SPRINGS  PTSUNNY   77  55  46 S8        30.23R THUNDER
A. F. ACADEMY  NOT AVBL
SCHRIEVER AFB  NOT AVBL
CHEYENNE MTN   NOT AVBL
ELLICOTT       FAIR     N/A N/A N/A E6        30.21S
FALCON           N/A     76  49  37 E8        30.29R
FORT CARSON    NOT AVBL
LIMON          FAIR      79  57  46 E9        30.17F
MONUMENT HILL  FAIR      73  48  40 E5        30.30S
CANON CITY     MOSUNNY   84  54  34 N3        30.15R
WALSENBURG     MOCLDY    70  57  64 W13G18    30.26R
TRINIDAD       CLOUDY    72  56  57 S14       30.25S
$$

COZ042>045-048>051-090-091-230100-
...NORTHEAST COLORADO...

CITY           SKY/WX    TMP DP  RH WIND       PRES   REMARKS
GREELEY ARPT   FAIR      91  52  26 VRB3      30.09F
AKRON          FAIR      82  46  28 SE13      30.12F
BURLINGTON     FAIR      83  50  31 E9        30.09R
WRAY           NOT AVBL
YUMA           NOT AVBL
STERLING       FAIR      86  50  28 SE9       30.06F
HOLYOKE        FAIR      86  46  25 SE9       30.08R
FORT MORGAN    FAIR      86  43  22 E15G21    30.10F
$$

COZ086-089-092>099-230100-
...SOUTHEAST COLORADO...

CITY           SKY/WX    TMP DP  RH WIND       PRES   REMARKS
PUEBLO         FAIR      85  56  37 S22G29    30.10R
LA JUNTA       FAIR      86  57  37 E9        30.08S
LAMAR          FAIR      88  59  37 NE13      30.03S
SPRINGFIELD      N/A     89  56  32 N9        30.05S
$$




USA.gov is the U.S. government's official web portal to all federal, state and local government web resources and services.